TimeCST,TemperatureF,Dew PointF,Humidity,Sea Level PressureIn,VisibilityMPH,Wind Direction,Wind SpeedMPH,Gust SpeedMPH,PrecipitationIn,Events,Conditions,WindDirDegrees,DateUTC
12:15 AM,17.6,14.0,86,29.89,10.0,North,6.9,-,N/A,,Overcast,360,2013-12-22 06:15:00
12:35 AM,17.6,14.0,86,29.88,10.0,North,6.9,-,N/A,,Overcast,360,2013-12-22 06:35:00
12:55 AM,17.6,14.0,86,29.88,10.0,North,6.9,-,N/A,,Overcast,360,2013-12-22 06:55:00
1:15 AM,17.6,14.0,86,29.88,10.0,North,8.1,-,N/A,,Overcast,360,2013-12-22 07:15:00
1:35 AM,17.6,14.0,86,29.88,10.0,North,6.9,-,N/A,,Overcast,360,2013-12-22 07:35:00
1:55 AM,17.6,14.0,86,29.89,10.0,North,6.9,-,N/A,,Overcast,360,2013-12-22 07:55:00
2:15 AM,19.4,14.0,80,29.90,10.0,North,6.9,-,N/A,,Overcast,360,2013-12-22 08:15:00
2:35 AM,19.4,14.0,80,29.91,10.0,North,5.8,-,N/A,,Overcast,360,2013-12-22 08:35:00
2:55 AM,19.4,14.0,80,29.91,10.0,North,4.6,-,N/A,,Overcast,360,2013-12-22 08:55:00
3:15 AM,19.4,14.0,80,29.92,10.0,North,4.6,-,N/A,,Overcast,360,2013-12-22 09:15:00
3:35 AM,19.4,14.0,80,29.92,10.0,North,5.8,-,N/A,Snow,Light Snow,350,2013-12-22 09:35:00
3:55 AM,19.4,14.0,80,29.92,10.0,North,5.8,-,N/A,,Overcast,350,2013-12-22 09:55:00
4:15 AM,19.4,15.8,86,29.90,10.0,North,6.9,-,N/A,,Overcast,360,2013-12-22 10:15:00
4:35 AM,19.4,15.8,86,29.90,10.0,North,6.9,-,N/A,,Overcast,350,2013-12-22 10:35:00
4:55 AM,19.4,15.8,86,29.90,10.0,North,5.8,-,N/A,,Overcast,350,2013-12-22 10:55:00
5:15 AM,19.4,15.8,86,29.89,10.0,North,8.1,-,N/A,,Overcast,360,2013-12-22 11:15:00
5:35 AM,19.4,15.8,86,29.90,10.0,North,5.8,-,N/A,,Overcast,10,2013-12-22 11:35:00
5:55 AM,19.4,15.8,86,29.90,10.0,North,6.9,-,N/A,,Overcast,360,2013-12-22 11:55:00
6:15 AM,19.4,17.6,93,29.90,10.0,North,9.2,-,N/A,,Overcast,360,2013-12-22 12:15:00
6:35 AM,19.4,17.6,93,29.90,10.0,North,9.2,-,N/A,,Overcast,360,2013-12-22 12:35:00
6:55 AM,19.4,17.6,93,29.91,10.0,NNE,10.4,-,N/A,,Overcast,20,2013-12-22 12:55:00
7:15 AM,19.4,17.6,93,29.91,10.0,NNE,10.4,-,N/A,,Overcast,20,2013-12-22 13:15:00
7:35 AM,19.4,17.6,93,29.92,10.0,NNE,10.4,17.3,N/A,,Overcast,20,2013-12-22 13:35:00
7:55 AM,19.4,17.6,93,29.92,10.0,North,10.4,-,N/A,,Overcast,10,2013-12-22 13:55:00
8:15 AM,21.2,17.6,86,29.92,7.0,North,9.2,-,N/A,Snow,Light Snow,10,2013-12-22 14:15:00
8:35 AM,21.2,17.6,86,29.92,10.0,North,11.5,-,N/A,,Mostly Cloudy,10,2013-12-22 14:35:00
8:55 AM,21.2,17.6,86,29.93,7.0,North,10.4,-,N/A,Snow,Light Snow,10,2013-12-22 14:55:00
9:15 AM,21.2,17.6,86,29.93,7.0,North,11.5,16.1,N/A,Snow,Light Snow,10,2013-12-22 15:15:00
9:35 AM,21.2,17.6,86,29.93,10.0,North,10.4,-,N/A,,Overcast,10,2013-12-22 15:35:00
9:55 AM,21.2,17.6,86,29.94,7.0,NNE,11.5,-,N/A,Snow,Light Snow,20,2013-12-22 15:55:00
10:15 AM,21.2,17.6,86,29.95,4.0,NNE,10.4,-,N/A,Snow,Light Snow,20,2013-12-22 16:15:00
10:35 AM,21.2,17.6,86,29.95,3.0,NNE,11.5,-,N/A,Snow,Light Snow,20,2013-12-22 16:35:00
10:55 AM,21.2,17.6,86,29.96,2.5,NNE,10.4,-,N/A,Snow,Light Snow,20,2013-12-22 16:55:00
11:15 AM,21.2,17.6,86,29.95,2.0,North,10.4,-,N/A,Snow,Light Snow,10,2013-12-22 17:15:00
11:35 AM,21.2,17.6,86,29.95,3.0,North,8.1,-,N/A,Snow,Light Snow,360,2013-12-22 17:35:00
11:55 AM,21.2,17.6,86,29.94,5.0,North,9.2,-,N/A,Snow,Light Snow,360,2013-12-22 17:55:00
12:15 PM,21.2,17.6,86,29.94,4.0,North,9.2,-,N/A,Snow,Light Snow,10,2013-12-22 18:15:00
12:35 PM,21.2,15.8,80,29.94,4.0,North,10.4,-,N/A,Snow,Light Snow,360,2013-12-22 18:35:00
12:55 PM,21.2,15.8,80,29.94,5.0,North,8.1,-,N/A,,Haze,360,2013-12-22 18:55:00
1:15 PM,21.2,17.6,86,29.94,5.0,North,11.5,-,N/A,Snow,Light Snow,360,2013-12-22 19:15:00
1:35 PM,21.2,17.6,86,29.95,7.0,North,11.5,-,N/A,Snow,Light Snow,360,2013-12-22 19:35:00
1:55 PM,21.2,17.6,86,29.96,5.0,North,10.4,-,N/A,Snow,Light Snow,360,2013-12-22 19:55:00
2:15 PM,21.2,17.6,86,29.96,5.0,North,9.2,-,N/A,Snow,Light Snow,360,2013-12-22 20:15:00
2:35 PM,21.2,17.6,86,29.96,5.0,North,9.2,-,N/A,Snow,Light Snow,360,2013-12-22 20:35:00
2:55 PM,21.2,17.6,86,29.97,5.0,North,8.1,-,N/A,Snow,Light Snow,360,2013-12-22 20:55:00
3:15 PM,21.2,17.6,86,29.98,5.0,North,9.2,-,N/A,Snow,Light Snow,350,2013-12-22 21:15:00
3:35 PM,21.2,17.6,86,29.99,4.0,North,10.4,-,N/A,Snow,Light Snow,350,2013-12-22 21:35:00
3:55 PM,21.2,17.6,86,30.00,3.0,North,10.4,-,N/A,Snow,Light Snow,350,2013-12-22 21:55:00
4:15 PM,19.4,15.8,86,30.01,5.0,North,6.9,-,N/A,Snow,Light Snow,350,2013-12-22 22:15:00
4:35 PM,19.4,15.8,86,30.01,7.0,North,6.9,-,N/A,Snow,Light Snow,350,2013-12-22 22:35:00
4:55 PM,19.4,15.8,86,30.02,5.0,NNW,8.1,-,N/A,Snow,Light Snow,340,2013-12-22 22:55:00
5:15 PM,19.4,15.8,86,30.03,10.0,NNW,8.1,-,N/A,Snow,Light Snow,340,2013-12-22 23:15:00
5:35 PM,19.4,15.8,86,30.03,7.0,NNW,9.2,-,N/A,Snow,Light Snow,340,2013-12-22 23:35:00
5:55 PM,19.4,15.8,86,30.03,3.0,North,8.1,-,N/A,Snow,Light Snow,350,2013-12-22 23:55:00
6:15 PM,17.6,14.0,86,30.04,5.0,NNW,9.2,-,N/A,Snow,Light Snow,340,2013-12-23 00:15:00
6:35 PM,17.6,14.0,86,30.05,5.0,NNW,10.4,-,N/A,Snow,Light Snow,330,2013-12-23 00:35:00
6:55 PM,17.6,14.0,86,30.05,4.0,NW,8.1,-,N/A,Snow,Light Snow,320,2013-12-23 00:55:00
7:15 PM,17.6,14.0,86,30.05,2.5,NW,8.1,-,N/A,Snow,Light Snow,320,2013-12-23 01:15:00
7:35 PM,17.6,14.0,86,30.06,2.0,NW,9.2,-,N/A,Snow,Light Snow,320,2013-12-23 01:35:00
7:55 PM,15.8,12.2,86,30.06,2.5,NNW,6.9,-,N/A,Snow,Light Snow,330,2013-12-23 01:55:00
8:15 PM,15.8,12.2,86,30.07,4.0,NW,6.9,-,N/A,Snow,Light Snow,310,2013-12-23 02:15:00
8:35 PM,15.8,12.2,86,30.07,7.0,NW,6.9,-,N/A,Snow,Light Snow,320,2013-12-23 02:35:00
8:55 PM,14.0,12.2,93,30.07,2.0,NW,8.1,-,N/A,Snow,Light Snow,320,2013-12-23 02:55:00
9:15 PM,14.0,12.2,93,30.07,2.0,NW,5.8,-,N/A,Snow,Light Snow,320,2013-12-23 03:15:00
9:35 PM,14.0,12.2,93,30.08,1.8,NW,6.9,-,N/A,Snow,Light Snow,310,2013-12-23 03:35:00
9:55 PM,14.0,10.4,86,30.07,1.8,NNW,8.1,-,N/A,Snow,Light Snow,340,2013-12-23 03:55:00
10:15 PM,14.0,10.4,86,30.08,1.5,NW,8.1,-,N/A,Snow,Light Snow,310,2013-12-23 04:15:00
10:35 PM,14.0,10.4,86,30.08,1.2,NW,10.4,-,N/A,Snow,Light Snow,310,2013-12-23 04:35:00
10:55 PM,12.2,10.4,92,30.09,2.0,NW,8.1,-,N/A,Snow,Light Snow,310,2013-12-23 04:55:00
11:15 PM,12.2,8.6,85,30.10,2.0,NW,8.1,-,N/A,Snow,Light Snow,310,2013-12-23 05:15:00
11:35 PM,12.2,8.6,85,30.11,2.5,NW,10.4,-,N/A,Snow,Light Snow,310,2013-12-23 05:35:00
11:55 PM,12.2,8.6,85,30.11,3.0,NW,5.8,-,N/A,Snow,Light Snow,310,2013-12-23 05:55:00